BLACK KITE-1

导读

BLACK KITE-1(NORAD编号66741)是一颗由中国台湾地区太空中心(TASA)委托、台北捷泰科技(Rapidtek Technologies)联合台湾工业技术研究院共同研发的8U规格物联网立方卫星。该卫星于2025年11月29日,搭载SpaceX猎鹰9号Transporter-15任务,在美国加利福尼亚范登堡太空部队基地发射升空,进入近地轨道。它是TASA2023年启动的创业立方卫星计划的组成部分,本次成功入轨正式开启了捷泰科技低轨卫星星座的部署进程,主要用于验证卫星物联网相关技术。

基本信息
目录编号:
66741
目录名称:
BLACK KITE-1
国际标识:
2025-276CD
轨道中心:
EARTH
卫星名称:
BLACK KITE-1
卫星全名:
BLACK KITE-1
卫星状态:
在轨 (已飞行281 天)
发射日期:
2025-11-28 UTC
国别 :
(TW)
星等 :
--
轨道信息
数据来源 国际轨道数据
星历时间: 2026-09-05T18:23:14+0800
6小时前
查看轨道信息
半长轴: 6879.003km
偏心率: 0.0007004
轨道倾角: 97.418°
近地点辐角 75.629°
升交点赤经 320.995°
平近点角 284.572°
近地点: 496.047km
远地点: 505.685km
周期: 94.634分钟
每日圈数: 15.216494
详细信息
使用方式:
暂无
2D轨道图
3D轨道图
轨道高度分析图
轨道倾角分析图
轨道综合分析图
查看轨道综合分析图
交会数据列表
事件ID 空间交会对象 最接近时刻(TCA) 交会距离 交会风险概率(CRP) 交会风险指数(CRI) 操作
CDM_260906-201506-674106-902423
BALKAN-2 (69024)
2026-09-06T
20:15:17+0000
1.656 km
极远距离
4.956218E-6 低风险 0.49
CDM_260906-184006-674106-902423
BALKAN-2 (69024)
2026-09-06T
18:40:34+0000
1.841 km
极远距离
3.623328E-6 低风险 0.46
CDM_260830-101406-538906-674121
2026-08-30T
10:14:32+0000
1.831 km
极远距离
3.612113E-6 低风险 0.46
CDM_260907-060805-307006-674121
2026-09-07T
06:08:32+0000
1.775 km
极远距离
3.426678E-6 低风险 0.46
CDM_260907-154004-029806-674121
ASNARO (40298)
2026-09-07T
15:40:00+0000
0.972 km
远距离
3.226803E-6 低风险 0.45
CDM_260906-184006-674106-900423
GEN1A-1 (69004)
2026-09-06T
18:40:36+0000
2.559 km
极远距离
1.705387E-6 低风险 0.4
CDM_260907-062706-386906-674121
2026-09-07T
06:27:31+0000
2.765 km
极远距离
1.508391E-6 低风险 0.39
CDM_260906-201506-674106-900423
GEN1A-1 (69004)
2026-09-06T
20:15:20+0000
2.807 km
极远距离
1.475964E-6 低风险 0.38
CDM_260907-061106-674106-726023
OBJECT N (67260)
2026-09-07T
06:11:37+0000
1.532 km
极远距离
7.452116E-7 极低风险 0.32